| time (UTC) | temp C | wind direction | speed KPH | gust KPH | rain 1hr cm | rain 24hr cm | rain mn cm | humidity % | barometer mb |
| 20260504151053 | 23 | 185 | 16.1 | 30.6 | 0.00 | 0.00 | 0.00 | 71 | 1015.9 |
| 20260504150552 | 23 | 214 | 16.1 | 29.0 | 0.00 | 0.00 | 0.00 | 72 | 1015.7 |
| 20260504141053 | 21 | 199 | 9.7 | 20.9 | 0.00 | 0.00 | 0.00 | 78 | 1015.9 |
| 20260504140552 | 21 | 129 | 8.0 | 16.1 | 0.00 | 0.00 | 0.00 | 78 | 1015.9 |
| 20260504140113 | 20 | 192 | 6.4 | 14.5 | 0.00 | 0.00 | 0.00 | 79 | 1015.9 |
| 20260504130553 | 17 | 187 | 3.2 | 8.0 | 0.00 | 0.00 | 0.00 | 84 | 1015.9 |
| 20260504130110 | 17 | 180 | 4.8 | 9.7 | 0.00 | 0.00 | 0.00 | 85 | 1015.8 |
| 20260504120114 | 15 | 170 | 0.0 | 0.0 | 0.00 | 0.00 | 0.00 | 84 | 1015.3 |
| 20260504110557 | 15 | 0 | 0.0 | 0.0 | 0.00 | 0.00 | 0.00 | 81 | 1015.9 |
| 20260504100552 | 16 | 179 | 4.8 | 11.3 | 0.00 | 0.00 | 0.00 | 81 | 1015.5 |
| 20260504081555 | 16 | 175 | 3.2 | 8.0 | 0.00 | 0.00 | 0.00 | 79 | 1016.3 |
| 20260504081051 | 16 | 161 | 1.6 | 8.0 | 0.00 | 0.00 | 0.00 | 79 | 1016.4 |
| 20260504080551 | 16 | 0 | 1.6 | 8.0 | 0.00 | 0.00 | 0.00 | 79 | 1016.4 |
| 20260504050552 | 18 | 181 | 4.8 | 14.5 | 0.00 | 0.00 | 0.00 | 75 | 1018.4 |
| 20260504050120 | 18 | 171 | 3.2 | 16.1 | 0.00 | 0.00 | 0.00 | 75 | 1018.5 |
| 20260504045552 | 18 | 175 | 4.8 | 16.1 | 0.00 | 0.00 | 0.00 | 75 | 1018.5 |
| 20260504045052 | 18 | 175 | 6.4 | 14.5 | 0.00 | 0.00 | 0.00 | 75 | 1018.7 |
| 20260504044559 | 18 | 188 | 4.8 | 14.5 | 0.00 | 0.00 | 0.00 | 75 | 1018.8 |
| 20260504044052 | 18 | 183 | 6.4 | 14.5 | 0.00 | 0.00 | 0.00 | 75 | 1018.9 |
| 20260504043552 | 18 | 182 | 4.8 | 12.9 | 0.00 | 0.00 | 0.00 | 75 | 1018.9 |
| 20260504043059 | 18 | 181 | 6.4 | 11.3 | 0.00 | 0.00 | 0.00 | 75 | 1018.9 |
| 20260504042551 | 18 | 180 | 4.8 | 11.3 | 0.00 | 0.00 | 0.00 | 75 | 1018.9 |
| 20260504042052 | 18 | 180 | 4.8 | 9.7 | 0.00 | 0.00 | 0.00 | 75 | 1018.9 |
| 20260504041552 | 18 | 188 | 4.8 | 9.7 | 0.00 | 0.00 | 0.00 | 75 | 1018.9 |
| 20260504041052 | 18 | 184 | 4.8 | 9.7 | 0.00 | 0.00 | 0.00 | 74 | 1018.9 |
| 20260504040552 | 18 | 190 | 3.2 | 8.0 | 0.00 | 0.00 | 0.00 | 74 | 1018.8 |
| 20260504040105 | 18 | 178 | 3.2 | 9.7 | 0.00 | 0.00 | 0.00 | 74 | 1018.8 |
| 20260504035552 | 18 | 177 | 4.8 | 9.7 | 0.00 | 0.00 | 0.00 | 74 | 1018.8 |
| 20260504035052 | 18 | 186 | 4.8 | 9.7 | 0.00 | 0.00 | 0.00 | 73 | 1018.9 |
| 20260504034553 | 18 | 178 | 3.2 | 9.7 | 0.00 | 0.00 | 0.00 | 73 | 1018.9 |
| 20260504034052 | 18 | 171 | 3.2 | 9.7 | 0.00 | 0.00 | 0.00 | 73 | 1018.9 |
| 20260504033552 | 18 | 178 | 4.8 | 9.7 | 0.00 | 0.00 | 0.00 | 73 | 1018.8 |
| 20260504033057 | 18 | 177 | 4.8 | 11.3 | 0.00 | 0.00 | 0.00 | 72 | 1018.8 |
| 20260504032552 | 18 | 182 | 6.4 | 12.9 | 0.00 | 0.00 | 0.00 | 72 | 1018.9 |
| 20260504032053 | 18 | 192 | 6.4 | 12.9 | 0.00 | 0.00 | 0.00 | 72 | 1018.9 |
| 20260504031623 | 18 | 187 | 6.4 | 12.9 | 0.00 | 0.00 | 0.00 | 72 | 1018.8 |
| 20260504031052 | 19 | 178 | 6.4 | 11.3 | 0.00 | 0.00 | 0.00 | 72 | 1018.9 |
| 20260504030553 | 19 | 187 | 6.4 | 11.3 | 0.00 | 0.00 | 0.00 | 72 | 1018.9 |
| 20260504030054 | 19 | 173 | 6.4 | 11.3 | 0.00 | 0.00 | 0.00 | 71 | 1018.8 |
| 20260504025552 | 19 | 181 | 4.8 | 11.3 | 0.00 | 0.00 | 0.00 | 71 | 1018.9 |
| 20260504025056 | 19 | 178 | 4.8 | 9.7 | 0.00 | 0.00 | 0.00 | 71 | 1018.9 |
| 20260504024553 | 20 | 188 | 4.8 | 9.7 | 0.00 | 0.00 | 0.00 | 71 | 1018.8 |
| 20260504024052 | 20 | 173 | 4.8 | 9.7 | 0.00 | 0.00 | 0.00 | 70 | 1018.6 |
| 20260504023552 | 20 | 178 | 4.8 | 9.7 | 0.00 | 0.00 | 0.00 | 70 | 1018.5 |
| 20260504023059 | 20 | 186 | 3.2 | 11.3 | 0.00 | 0.00 | 0.00 | 70 | 1018.6 |
| 20260504022552 | 20 | 189 | 4.8 | 11.3 | 0.00 | 0.00 | 0.00 | 69 | 1018.4 |
| 20260504022052 | 20 | 182 | 4.8 | 9.7 | 0.00 | 0.00 | 0.00 | 69 | 1018.3 |
| 20260504021605 | 20 | 188 | 4.8 | 11.3 | 0.00 | 0.00 | 0.00 | 69 | 1018.3 |
| 20260504021052 | 20 | 178 | 4.8 | 11.3 | 0.00 | 0.00 | 0.00 | 68 | 1018.3 |
| 20260504020551 | 20 | 187 | 4.8 | 12.9 | 0.00 | 0.00 | 0.00 | 68 | 1018.3 |
| 20260504015551 | 21 | 190 | 4.8 | 9.7 | 0.00 | 0.00 | 0.00 | 67 | 1018.2 |
| 20260504015052 | 21 | 186 | 4.8 | 12.9 | 0.00 | 0.00 | 0.00 | 67 | 1018.2 |
| 20260504014553 | 21 | 186 | 4.8 | 14.5 | 0.00 | 0.00 | 0.00 | 66 | 1018.2 |
| 20260504014050 | 21 | 198 | 4.8 | 16.1 | 0.00 | 0.00 | 0.00 | 66 | 1018.1 |
| 20260504013552 | 21 | 179 | 8.0 | 16.1 | 0.00 | 0.00 | 0.00 | 65 | 1018.0 |
| 20260504013059 | 21 | 181 | 8.0 | 16.1 | 0.00 | 0.00 | 0.00 | 65 | 1018.0 |
| 20260504012554 | 22 | 200 | 8.0 | 16.1 | 0.00 | 0.00 | 0.00 | 64 | 1018.1 |
| 20260504012056 | 22 | 200 | 8.0 | 16.1 | 0.00 | 0.00 | 0.00 | 63 | 1018.0 |
| 20260504011556 | 22 | 183 | 6.4 | 17.7 | 0.00 | 0.00 | 0.00 | 63 | 1018.0 |
| 20260504011054 | 22 | 157 | 8.0 | 19.3 | 0.00 | 0.00 | 0.00 | 62 | 1018.0 |
| 20260504010554 | 22 | 188 | 8.0 | 19.3 | 0.00 | 0.00 | 0.00 | 62 | 1018.0 |
| 20260504010115 | 23 | 183 | 8.0 | 19.3 | 0.00 | 0.00 | 0.00 | 61 | 1018.0 |
| 20260504005554 | 23 | 182 | 8.0 | 20.9 | 0.00 | 0.00 | 0.00 | 60 | 1017.9 |
| 20260504005052 | 23 | 193 | 8.0 | 24.1 | 0.00 | 0.00 | 0.00 | 58 | 1018.1 |
| 20260504004556 | 24 | 192 | 8.0 | 24.1 | 0.00 | 0.00 | 0.00 | 54 | 1018.1 |
| 20260504004052 | 24 | 117 | 3.2 | 8.0 | 0.00 | 0.00 | 0.00 | 50 | 1018.0 |
| 20260504003554 | 25 | 124 | 0.0 | 3.2 | 0.00 | 0.00 | 0.00 | 50 | 1018.0 |
| 20260504003051 | 25 | 124 | 0.0 | 8.0 | 0.00 | 0.00 | 0.00 | 49 | 1018.1 |
| 20260504002551 | 25 | 0 | 0.0 | 8.0 | 0.00 | 0.00 | 0.00 | 48 | 1018.1 |
| 20260504002052 | 25 | 155 | 0.0 | 9.7 | 0.00 | 0.00 | 0.00 | 47 | 1018.1 |
| 20260504001611 | 25 | 158 | 3.2 | 9.7 | 0.00 | 0.00 | 0.00 | 46 | 1018.0 |
| 20260504001052 | 25 | 174 | 4.8 | 9.7 | 0.00 | 0.00 | 0.00 | 46 | 1018.0 |
| 20260504000551 | 25 | 140 | 3.2 | 11.3 | 0.00 | 0.00 | 0.00 | 44 | 1018.2 |
| 20260504000105 | 25 | 163 | 3.2 | 11.3 | 0.00 | 0.00 | 0.00 | 44 | 1018.3 |
| 20260503235550 | 25 | 127 | 1.6 | 12.9 | 0.00 | 0.00 | 0.00 | 44 | 1018.4 |
| 20260503235052 | 25 | 138 | 3.2 | 12.9 | 0.00 | 0.00 | 0.00 | 44 | 1018.3 |
| 20260503234555 | 25 | 145 | 4.8 | 16.1 | 0.00 | 0.00 | 0.00 | 43 | 1018.2 |
| 20260503234052 | 25 | 112 | 4.8 | 16.1 | 0.00 | 0.00 | 0.00 | 43 | 1018.2 |
| 20260503233555 | 25 | 169 | 4.8 | 12.9 | 0.00 | 0.00 | 0.00 | 43 | 1018.3 |
| 20260503233055 | 26 | 123 | 4.8 | 12.9 | 0.00 | 0.00 | 0.00 | 43 | 1018.2 |
| 20260503232554 | 26 | 149 | 4.8 | 12.9 | 0.00 | 0.00 | 0.00 | 44 | 1018.2 |
| 20260503232052 | 26 | 156 | 3.2 | 16.1 | 0.00 | 0.00 | 0.00 | 43 | 1018.2 |
| 20260503231556 | 26 | 130 | 3.2 | 16.1 | 0.00 | 0.00 | 0.00 | 43 | 1018.2 |
| 20260503231052 | 26 | 155 | 6.4 | 16.1 | 0.00 | 0.00 | 0.00 | 42 | 1018.4 |
| 20260503230555 | 26 | 135 | 4.8 | 14.5 | 0.00 | 0.00 | 0.00 | 42 | 1018.5 |
| 20260503230100 | 26 | 173 | 6.4 | 16.1 | 0.00 | 0.00 | 0.00 | 40 | 1018.6 |
| 20260503225552 | 26 | 134 | 4.8 | 16.1 | 0.00 | 0.00 | 0.00 | 42 | 1018.5 |
| 20260503225054 | 26 | 149 | 4.8 | 16.1 | 0.00 | 0.00 | 0.00 | 42 | 1018.4 |
| 20260503224557 | 26 | 100 | 4.8 | 16.1 | 0.00 | 0.00 | 0.00 | 42 | 1018.5 |
| 20260503224051 | 26 | 101 | 4.8 | 16.1 | 0.00 | 0.00 | 0.00 | 40 | 1018.7 |
| 20260503223551 | 26 | 156 | 4.8 | 14.5 | 0.00 | 0.00 | 0.00 | 41 | 1018.8 |
| 20260503223057 | 26 | 158 | 4.8 | 14.5 | 0.00 | 0.00 | 0.00 | 41 | 1018.8 |
| 20260503222550 | 26 | 101 | 6.4 | 14.5 | 0.00 | 0.00 | 0.00 | 40 | 1018.9 |
| 20260503222054 | 26 | 166 | 4.8 | 14.5 | 0.00 | 0.00 | 0.00 | 43 | 1018.8 |
| 20260503221555 | 26 | 84 | 3.2 | 14.5 | 0.00 | 0.00 | 0.00 | 43 | 1018.8 |
| 20260503221054 | 26 | 127 | 3.2 | 16.1 | 0.00 | 0.00 | 0.00 | 44 | 1018.8 |
| 20260503220555 | 26 | 63 | 6.4 | 17.7 | 0.00 | 0.00 | 0.00 | 41 | 1018.9 |
| 20260503215555 | 26 | 167 | 6.4 | 16.1 | 0.00 | 0.00 | 0.00 | 43 | 1019.2 |
| 20260503215054 | 26 | 90 | 4.8 | 16.1 | 0.00 | 0.00 | 0.00 | 42 | 1019.2 |
| 20260503214557 | 26 | 132 | 6.4 | 16.1 | 0.00 | 0.00 | 0.00 | 41 | 1019.2 |
| 20260503214059 | 26 | 85 | 3.2 | 17.7 | 0.00 | 0.00 | 0.00 | 40 | 1019.4 |
| 20260503213554 | 26 | 92 | 3.2 | 17.7 | 0.00 | 0.00 | 0.00 | 42 | 1019.6 |
| 20260503213123 | 26 | 205 | 6.4 | 14.5 | 0.00 | 0.00 | 0.00 | 41 | 1019.7 |
| 20260503212554 | 26 | 111 | 6.4 | 14.5 | 0.00 | 0.00 | 0.00 | 42 | 1019.7 |
| 20260503212054 | 26 | 169 | 6.4 | 19.3 | 0.00 | 0.00 | 0.00 | 42 | 1019.8 |
| 20260503211619 | 26 | 148 | 8.0 | 19.3 | 0.00 | 0.00 | 0.00 | 44 | 1019.9 |
| 20260503211052 | 26 | 155 | 9.7 | 27.4 | 0.00 | 0.00 | 0.00 | 42 | 1020.0 |
| 20260503210552 | 26 | 199 | 11.3 | 27.4 | 0.00 | 0.00 | 0.00 | 42 | 1020.1 |
| 20260503210052 | 26 | 200 | 9.7 | 22.5 | 0.00 | 0.00 | 0.00 | 45 | 1020.0 |
| 20260503205552 | 26 | 167 | 6.4 | 14.5 | 0.00 | 0.00 | 0.00 | 41 | 1020.1 |
| 20260503205056 | 26 | 138 | 4.8 | 14.5 | 0.00 | 0.00 | 0.00 | 46 | 1020.2 |
| 20260503204606 | 26 | 190 | 6.4 | 16.1 | 0.00 | 0.00 | 0.00 | 47 | 1020.2 |
| 20260503204054 | 26 | 208 | 6.4 | 16.1 | 0.00 | 0.00 | 0.00 | 42 | 1020.2 |
| 20260503203551 | 26 | 171 | 8.0 | 29.0 | 0.00 | 0.00 | 0.00 | 45 | 1020.4 |
| 20260503203111 | 26 | 196 | 12.9 | 29.0 | 0.00 | 0.00 | 0.00 | 44 | 1020.5 |
| 20260503202552 | 26 | 194 | 11.3 | 20.9 | 0.00 | 0.00 | 0.00 | 44 | 1020.4 |
| 20260503202056 | 26 | 153 | 4.8 | 19.3 | 0.00 | 0.00 | 0.00 | 44 | 1020.4 |
| 20260503201552 | 26 | 194 | 6.4 | 20.9 | 0.00 | 0.00 | 0.00 | 44 | 1020.6 |
| 20260503201055 | 26 | 112 | 8.0 | 22.5 | 0.00 | 0.00 | 0.00 | 44 | 1020.6 |
| 20260503200551 | 26 | 182 | 9.7 | 22.5 | 0.00 | 0.00 | 0.00 | 44 | 1020.8 |
| 20260503200054 | 26 | 156 | 11.3 | 22.5 | 0.00 | 0.00 | 0.00 | 45 | 1020.7 |
| 20260503195555 | 26 | 117 | 8.0 | 17.7 | 0.00 | 0.00 | 0.00 | 47 | 1020.9 |
| 20260503195054 | 26 | 108 | 8.0 | 17.7 | 0.00 | 0.00 | 0.00 | 43 | 1020.9 |
| 20260503194611 | 26 | 192 | 9.7 | 17.7 | 0.00 | 0.00 | 0.00 | 44 | 1020.9 |
| 20260503194054 | 26 | 172 | 6.4 | 19.3 | 0.00 | 0.00 | 0.00 | 44 | 1021.1 |
| 20260503193554 | 26 | 85 | 4.8 | 22.5 | 0.00 | 0.00 | 0.00 | 44 | 1021.2 |
| 20260503193107 | 26 | 151 | 9.7 | 25.7 | 0.00 | 0.00 | 0.00 | 45 | 1021.3 |
| 20260503192552 | 26 | 155 | 8.0 | 25.7 | 0.00 | 0.00 | 0.00 | 44 | 1021.3 |
| 20260503192055 | 26 | 162 | 9.7 | 19.3 | 0.00 | 0.00 | 0.00 | 43 | 1021.5 |
| 20260503191604 | 26 | 161 | 8.0 | 19.3 | 0.00 | 0.00 | 0.00 | 47 | 1021.4 |
| 20260503191055 | 26 | 117 | 6.4 | 16.1 | 0.00 | 0.00 | 0.00 | 44 | 1021.4 |
| 20260503190556 | 26 | 114 | 6.4 | 16.1 | 0.00 | 0.00 | 0.00 | 43 | 1021.5 |
| 20260503190056 | 26 | 96 | 8.0 | 19.3 | 0.00 | 0.00 | 0.00 | 45 | 1021.6 |
| 20260503185554 | 26 | 150 | 4.8 | 19.3 | 0.00 | 0.00 | 0.00 | 43 | 1021.6 |
| 20260503185054 | 26 | 164 | 9.7 | 19.3 | 0.00 | 0.00 | 0.00 | 44 | 1021.7 |
| 20260503184628 | 26 | 207 | 9.7 | 20.9 | 0.00 | 0.00 | 0.00 | 43 | 1021.9 |
| 20260503184054 | 26 | 196 | 4.8 | 25.7 | 0.00 | 0.00 | 0.00 | 44 | 1021.9 |
| 20260503183553 | 26 | 67 | 8.0 | 25.7 | 0.00 | 0.00 | 0.00 | 44 | 1022.0 |
| 20260503183108 | 26 | 97 | 4.8 | 14.5 | 0.00 | 0.00 | 0.00 | 44 | 1022.1 |
| 20260503182552 | 26 | 78 | 6.4 | 19.3 | 0.00 | 0.00 | 0.00 | 41 | 1022.1 |
| 20260503182052 | 26 | 188 | 6.4 | 22.5 | 0.00 | 0.00 | 0.00 | 46 | 1022.3 |
| 20260503181557 | 26 | 147 | 6.4 | 22.5 | 0.00 | 0.00 | 0.00 | 41 | 1022.3 |
| 20260503181052 | 26 | 171 | 4.8 | 19.3 | 0.00 | 0.00 | 0.00 | 42 | 1022.4 |
| 20260503180554 | 26 | 113 | 6.4 | 19.3 | 0.00 | 0.00 | 0.00 | 40 | 1022.4 |
| 20260503180053 | 26 | 161 | 4.8 | 19.3 | 0.00 | 0.00 | 0.00 | 42 | 1022.5 |
| 20260503175554 | 26 | 96 | 3.2 | 14.5 | 0.00 | 0.00 | 0.00 | 40 | 1022.7 |
| 20260503175054 | 26 | 143 | 3.2 | 12.9 | 0.00 | 0.00 | 0.00 | 43 | 1022.7 |
| 20260503174613 | 26 | 95 | 4.8 | 12.9 | 0.00 | 0.00 | 0.00 | 40 | 1022.8 |
| 20260503174054 | 26 | 77 | 4.8 | 14.5 | 0.00 | 0.00 | 0.00 | 41 | 1022.8 |
| 20260503173555 | 26 | 63 | 6.4 | 14.5 | 0.00 | 0.00 | 0.00 | 39 | 1023.0 |
| 20260503173116 | 26 | 204 | 4.8 | 14.5 | 0.00 | 0.00 | 0.00 | 43 | 1023.2 |
| 20260503172555 | 26 | 148 | 4.8 | 14.5 | 0.00 | 0.00 | 0.00 | 42 | 1023.1 |
| 20260503172058 | 25 | 173 | 3.2 | 12.9 | 0.00 | 0.00 | 0.00 | 46 | 1023.3 |
| 20260503171553 | 25 | 228 | 6.4 | 19.3 | 0.00 | 0.00 | 0.00 | 44 | 1023.2 |
| 20260503171054 | 25 | 213 | 8.0 | 19.3 | 0.00 | 0.00 | 0.00 | 45 | 1023.2 |
| 20260503170554 | 25 | 206 | 6.4 | 12.9 | 0.00 | 0.00 | 0.00 | 45 | 1023.4 |